GFSFLT1_250_spd_078.txt.gz
Wind_Speed
14 12 13 15 15 36 44 43 37 36 44 42 36 38 45 50 46 38 45 46 48 49 46 43 39 41 37 43 45 45 47 44
20 10 9 11 14 13 45 51 48 42 38 44 42 38 49 51 49 50 44 47 49 40 41 44 43 47 47 42 44 46 47 49
20 8 9 10 9 12 14 51 56 55 46 50 44 46 43 54 51 58 55 46 51 50 44 50 46 50 51 50 50 52 50 49
22 13 10 7 8 8 8 20 48 58 55 51 50 48 53 51 55 53 54 53 49 54 48 51 53 56 57 54 50 49 53 55
24 21 11 10 8 6 8 9 14 34 56 61 59 56 53 53 60 57 56 57 52 53 52 53 55 55 52 54 58 53 54 54
25 22 20 8 10 10 8 9 10 11 20 38 66 67 65 66 62 61 61 63 63 60 60 54 53 51 53 55 59 59 59 59
28 24 21 12 10 13 13 11 9 10 7 12 24 34 61 70 66 69 66 64 64 65 62 62 65 61 59 59 61 62 66 67
32 28 26 22 14 15 15 18 18 11 12 8 7 17 26 38 50 60 61 59 60 59 65 66 68 72 72 70 67 70 73 74
34 33 28 24 19 20 16 19 20 19 14 15 13 10 8 17 28 38 43 47 50 53 61 63 64 68 66 67 69 72 72 73
38 39 32 29 26 25 22 24 24 21 21 18 12 11 11 11 14 23 30 35 37 39 46 54 59 65 74 77 76 79 70 55
38 37 37 33 30 29 27 22 20 24 27 24 17 12 11 11 11 12 25 29 28 29 29 31 39 43 40 36 37 36 37 39
44 40 39 38 38 35 34 31 28 22 24 26 25 20 16 13 12 11 11 20 31 31 31 31 31 34 34 36 39 40 42 42
46 46 44 44 41 39 39 34 38 37 29 28 25 24 22 19 16 15 19 16 15 19 37 41 39 37 40 45 45 48 50 51
55 50 51 50 49 46 43 39 34 34 36 36 32 27 24 25 25 22 20 21 20 20 21 20 34 43 45 48 50 51 52 53
56 52 51 51 51 52 50 44 39 38 38 40 41 37 29 27 27 26 27 24 22 25 25 24 24 24 26 34 45 50 52 52
56 55 56 56 55 54 54 51 47 42 40 41 48 46 41 38 34 31 31 29 27 31 30 33 31 30 31 32 32 32 31 34
63 61 59 56 56 58 57 55 55 49 45 46 45 48 48 43 41 40 35 33 31 33 32 33 37 38 38 38 38 37 36 37
61 60 58 57 57 59 60 59 59 55 52 51 50 46 47 52 47 44 47 43 42 44 39 38 40 40 43 44 45 43 42 44
67 65 61 58 59 57 59 57 58 58 57 58 56 53 52 52 57 55 50 51 51 49 47 51 52 52 49 49 53 49 48 49

GFSFLT1_250_spd_081.txt.gz
Wind_Speed
19 20 23 26 23 23 22 31 43 32 32 32 47 46 45 49 64 75 70 66 57 38 40 42 44 42 39 41 40 39 36 39
19 18 21 23 22 19 20 17 39 42 36 35 46 42 41 43 53 58 63 54 47 41 41 42 41 41 41 40 41 40 38 42
22 18 18 20 20 19 20 18 19 42 39 35 50 45 42 38 44 49 56 57 50 44 46 45 51 51 55 54 49 45 45 48
26 18 19 21 18 19 20 17 17 28 47 44 43 44 50 44 43 44 52 53 49 45 48 55 56 52 50 54 56 47 49 52
36 20 22 22 16 11 14 17 18 18 32 52 53 55 50 51 49 49 48 55 55 55 56 56 54 55 54 48 50 51 56 57
35 26 23 24 17 15 9 11 15 17 19 24 41 64 61 59 53 52 53 55 57 57 63 61 56 55 59 66 61 60 59 58
42 30 26 24 20 17 12 6 9 14 14 17 18 27 51 68 61 61 58 61 64 63 59 59 59 58 56 58 60 60 58 59
36 33 29 27 26 23 20 14 7 12 11 15 15 15 20 34 53 69 71 69 67 68 66 68 68 65 65 65 62 63 66 67
37 34 29 30 28 26 25 21 15 17 15 16 17 17 16 15 23 33 43 58 66 67 70 67 70 69 66 66 65 68 71 70
36 34 34 32 29 29 29 25 24 21 19 18 19 18 16 14 15 15 21 30 41 50 61 67 68 70 70 68 67 69 70 72
40 41 37 31 33 32 32 31 29 27 23 24 22 21 19 14 13 14 14 14 19 29 38 47 55 60 65 69 70 69 72 71
48 45 39 37 35 34 33 34 35 32 31 32 31 28 24 23 18 14 12 11 13 14 21 29 34 37 38 39 44 48 50 51
47 47 42 39 40 38 38 38 40 37 33 32 35 37 37 28 28 28 24 22 16 15 18 19 21 36 42 40 39 39 43 47
48 45 43 43 44 44 41 41 43 43 42 39 34 36 37 34 31 33 34 33 31 26 25 21 20 24 26 32 46 51 51 50
53 53 51 47 49 49 46 47 46 46 45 45 44 40 37 40 40 42 39 38 38 36 32 32 31 31 26 30 31 31 30 33
51 58 60 56 51 51 48 45 48 48 47 49 50 47 43 41 42 42 43 43 44 41 37 34 37 36 39 34 29 33 35 34
43 48 56 60 56 54 54 52 53 53 54 51 51 52 51 49 46 42 43 44 45 43 42 41 38 41 44 41 41 36 35 40
49 51 54 54 56 56 58 60 59 57 55 53 55 55 55 56 52 50 49 49 46 48 50 48 49 50 48 45 45 48 46 46
57 59 60 57 56 54 55 56 58 60 60 61 59 55 52 54 56 55 54 53 53 51 51 52 57 56 55 57 58 55 56 55

GFSFLT1_250_spd_084.txt.gz
Wind_Speed
38 33 29 18 23 26 29 30 24 18 31 26 35 48 47 51 51 54 54 54 55 52 54 52 50 46 43 38 31 37 35 33
40 33 27 18 17 25 25 28 27 20 30 33 23 37 47 47 52 53 60 63 62 66 62 58 54 40 45 42 38 37 36 39
42 35 29 25 16 21 27 26 24 21 17 37 39 33 36 49 46 49 52 56 61 63 66 68 63 48 46 48 47 45 39 42
43 37 33 28 17 18 21 21 19 17 16 15 37 42 37 44 52 44 46 45 48 54 63 60 51 55 52 54 55 49 47 45
44 39 36 31 20 18 18 19 19 16 15 15 19 39 40 37 47 49 50 44 44 48 48 48 48 49 49 49 51 52 54 51
45 42 38 34 26 21 15 19 18 11 12 13 13 17 37 39 46 50 49 52 49 49 48 48 47 46 47 46 51 53 53 56
46 42 40 33 28 24 18 18 19 18 8 12 14 12 14 34 52 53 56 52 56 51 54 52 57 59 57 59 60 59 60 56
46 44 41 37 35 28 24 19 21 19 10 11 16 18 16 16 17 27 44 51 55 60 59 59 58 62 65 62 64 67 62 58
49 45 39 38 36 30 26 23 19 22 18 16 15 17 20 24 22 19 21 31 44 50 57 61 61 63 66 67 67 67 63 62
51 46 44 41 38 33 29 26 23 22 23 24 23 22 23 23 25 25 22 22 25 34 43 50 55 61 67 70 70 71 72 72
46 45 45 40 38 37 34 29 26 26 26 27 27 25 24 25 25 26 26 23 22 20 22 29 34 41 48 58 68 72 73 73
46 47 48 43 39 39 38 33 31 30 29 30 33 31 27 28 31 32 32 30 28 27 24 22 20 21 29 35 40 45 50 58
46 49 50 47 44 40 39 37 34 33 33 34 33 33 32 30 29 32 32 33 32 33 33 30 27 26 23 24 25 29 41 42
42 43 47 49 50 48 43 40 38 38 38 38 38 38 38 34 34 34 34 35 36 37 39 41 39 36 35 30 25 23 28 30
45 47 46 45 44 37 34 41 46 45 44 43 42 43 43 40 39 39 40 37 37 36 36 38 39 39 39 36 35 35 32 32
48 49 49 48 48 47 50 48 46 47 46 43 45 42 43 43 42 43 43 44 43 39 40 38 39 41 42 42 38 36 40 43
52 47 47 52 51 51 50 51 50 49 51 51 53 48 47 46 46 44 45 47 48 48 46 45 44 44 45 45 47 47 45 45
49 47 45 50 57 58 58 56 55 57 57 54 53 54 54 55 56 51 51 50 51 51 50 50 50 51 53 51 49 48 49 52
58 54 50 51 50 50 52 54 55 56 58 59 60 60 62 59 55 55 56 56 55 54 53 54 53 54 57 58 57 55 56 55

GFSFLT1_250_spd_087.txt.gz
Wind_Speed
42 41 37 34 37 31 32 31 30 26 21 16 20 14 34 25 33 39 36 41 47 51 53 46 44 35 39 41 44 37 39 37
38 43 38 36 34 31 28 28 31 26 21 18 23 20 32 36 34 41 48 43 47 49 53 50 50 54 53 46 45 38 38 40
40 42 40 37 33 31 27 24 29 23 23 17 20 25 20 38 42 42 47 47 52 46 48 48 52 52 53 53 51 51 42 44
42 44 41 39 32 31 27 22 24 23 23 18 10 26 30 25 23 37 53 45 54 55 58 57 57 57 60 58 58 55 53 47
42 46 44 42 36 34 30 21 19 21 21 19 10 7 24 36 31 28 29 47 50 48 52 54 54 56 59 57 45 49 52 51
47 51 45 44 38 37 33 23 18 21 20 19 11 8 7 20 33 35 31 35 42 53 52 48 50 46 46 45 48 50 54 54
53 56 43 46 40 40 35 29 20 19 19 18 13 10 10 4 11 23 32 36 39 44 45 46 52 51 49 48 48 51 49 49
53 54 47 45 42 43 39 30 25 21 20 17 13 12 11 12 10 7 8 21 38 51 51 55 55 54 53 52 51 51 53 53
54 56 49 44 43 45 41 36 29 23 23 20 18 16 15 17 14 13 12 10 10 15 35 56 54 54 56 56 57 57 58 62
54 55 49 46 45 44 41 37 32 26 26 24 22 21 20 19 19 19 19 20 20 16 16 15 23 40 58 64 63 61 64 65
54 54 51 49 46 44 41 39 35 32 28 25 25 24 23 22 22 22 21 23 22 21 20 19 18 18 18 26 39 54 66 71
51 57 54 50 46 45 43 42 40 36 32 30 29 27 27 27 26 26 24 23 24 24 25 25 25 24 23 22 21 23 25 27
44 49 57 56 50 48 45 43 42 40 38 35 34 36 33 29 26 28 28 28 28 27 28 29 30 29 30 30 27 28 27 23
45 41 48 57 52 47 44 45 43 40 39 39 36 38 39 34 33 32 33 31 32 32 32 32 30 29 30 32 32 32 32 31
39 42 38 46 52 46 44 45 45 43 40 41 42 41 40 40 40 39 39 37 38 37 36 37 36 35 36 35 34 33 36 37
42 41 43 44 46 53 47 48 47 45 46 49 51 50 49 47 45 43 41 40 41 40 41 42 41 42 43 41 40 39 39 39
42 47 49 49 52 51 50 50 48 47 48 52 52 51 49 49 50 50 51 49 48 46 45 48 46 47 48 47 46 45 44 43
49 51 51 56 51 54 53 54 55 55 54 54 54 55 54 53 54 54 54 54 52 52 53 53 50 51 53 53 53 51 50 49
50 49 55 54 54 55 54 55 55 55 56 59 59 58 57 57 56 57 58 57 59 60 61 58 57 56 56 57 57 58 53 53

GFSFLT1_250_spd_090.txt.gz
Wind_Speed
55 54 47 47 44 35 36 33 31 30 27 20 20 17 17 19 22 27 24 24 32 35 37 39 38 42 41 32 23 27 27 28
54 51 48 46 41 36 36 32 30 28 24 22 19 11 20 25 29 30 23 23 32 36 36 42 46 44 43 46 33 35 37 43
57 54 52 48 39 38 37 31 29 25 21 20 19 15 22 29 31 34 34 29 32 37 38 43 42 46 49 46 44 43 39 37
53 52 53 48 40 40 38 31 28 24 21 18 20 15 19 27 34 32 37 36 37 42 44 47 46 44 50 52 51 49 49 53
56 59 59 52 43 41 39 33 27 25 19 18 15 13 5 29 33 33 38 38 42 42 46 48 49 53 57 56 54 54 53 51
60 60 60 56 41 42 40 35 30 25 19 17 13 7 6 7 33 29 28 30 35 46 44 49 50 50 50 53 57 58 56 51
62 64 57 49 40 45 43 39 33 30 22 20 13 6 4 6 4 23 34 34 32 32 32 41 47 49 50 49 47 47 41 44
56 56 54 50 44 48 47 42 38 32 29 23 17 14 7 3 1 6 9 16 30 38 37 37 41 48 49 47 47 46 45 46
57 53 56 52 48 49 49 45 40 38 31 28 23 19 18 12 8 5 4 8 11 12 16 27 39 46 50 49 50 49 52 55
58 58 57 54 48 50 52 47 44 41 36 29 27 23 22 18 15 14 11 5 4 5 8 8 8 9 16 30 45 56 59 58
63 57 55 53 48 51 51 49 46 44 40 37 32 27 26 25 22 18 15 13 12 9 8 8 9 11 13 12 11 12 16 21
52 57 56 49 48 49 50 49 45 44 43 40 37 34 30 28 27 24 23 21 20 17 17 16 16 17 18 16 15 16 19 20
54 54 52 50 48 49 49 49 47 45 43 43 40 38 35 33 32 31 30 27 24 25 24 23 24 24 25 24 24 23 22 22
52 53 51 45 47 48 50 48 48 47 44 44 44 43 40 38 36 37 37 34 32 31 29 28 28 29 31 31 30 31 30 29
50 51 47 44 49 49 49 51 50 48 44 45 46 45 42 42 40 38 40 41 40 38 37 36 36 36 36 37 36 35 36 36
48 45 45 43 46 47 50 51 52 51 49 50 49 50 48 47 48 47 46 46 44 43 43 43 40 42 42 41 39 40 40 41
45 43 38 39 39 47 51 48 52 51 50 51 54 56 57 56 55 55 54 54 51 49 47 47 48 48 50 50 46 45 46 45
48 47 46 45 46 47 51 54 55 54 54 54 54 55 55 55 56 57 55 57 55 51 52 53 52 52 53 54 56 53 53 52
54 51 50 47 48 52 51 54 58 60 60 58 57 56 56 57 56 56 55 56 59 59 59 59 56 59 58 59 63 63 60 56

GFSFLT1_250_spd_093.txt.gz
Wind_Speed
56 59 59 54 54 49 46 41 41 34 30 25 27 21 21 21 26 17 16 8 11 45 52 52 49 40 35 33 28 31 26 26
59 59 61 56 53 47 43 44 41 32 30 24 25 18 19 22 24 20 21 15 18 44 42 44 44 38 33 35 36 39 30 28
61 59 57 54 54 49 42 40 38 31 30 25 25 18 18 22 25 26 28 24 19 33 41 45 40 37 32 37 39 39 42 41
61 62 58 54 52 45 43 40 39 30 32 26 25 17 17 19 29 30 34 32 30 34 38 36 37 38 47 40 42 42 46 45
58 58 53 52 50 45 40 41 38 31 33 26 25 16 15 13 29 34 36 34 40 41 39 38 35 41 48 49 48 48 49 48
51 53 53 50 47 44 42 38 38 33 34 28 24 14 9 11 28 35 34 39 35 40 44 44 46 51 51 54 51 51 52 52
50 54 51 50 47 47 41 40 39 37 36 30 25 16 6 4 10 31 37 42 37 39 42 43 46 50 53 54 56 58 56 54
53 54 55 54 52 51 43 40 43 42 40 35 30 21 14 10 4 13 31 38 41 46 45 49 50 48 49 48 53 54 48 51
57 59 60 59 56 54 42 42 47 46 44 38 34 27 21 17 11 9 13 19 29 40 45 45 45 46 46 48 52 54 56 54
57 58 62 63 57 58 45 45 50 49 48 41 36 33 29 25 19 16 14 14 18 18 22 30 35 40 43 47 48 51 54 54
61 62 65 64 62 59 45 44 52 52 50 45 42 38 33 29 27 23 20 17 17 17 18 20 21 21 20 18 17 19 22 27
67 66 68 68 67 58 45 44 53 54 52 49 44 41 40 34 32 30 27 25 24 22 20 20 19 18 20 21 19 21 20 22
64 64 66 69 66 55 41 48 55 56 53 52 48 47 46 42 39 35 33 33 32 29 26 26 25 25 24 24 25 25 24 24
52 52 51 54 56 46 43 52 56 53 53 53 51 50 48 44 41 41 39 38 37 37 33 31 31 30 30 30 30 30 30 31
34 37 36 43 43 42 49 52 53 53 53 51 52 51 49 47 45 44 43 44 44 44 43 41 40 38 38 36 36 36 36 36
19 20 34 27 37 45 49 52 51 53 52 49 50 51 49 49 49 47 47 48 48 49 47 47 46 45 44 43 42 41 41 43
28 29 35 46 46 46 50 50 51 54 55 52 45 45 50 56 54 54 54 51 51 50 49 48 50 51 50 48 46 47 46 48
46 43 39 41 40 40 40 44 47 50 51 54 54 50 47 52 58 57 59 55 55 55 55 56 57 56 58 56 55 53 53 54
59 49 46 45 47 47 45 44 46 49 50 53 53 53 54 59 60 60 58 57 58 60 61 61 59 58 58 57 59 60 61 60

GFSFLT1_250_spd_096.txt.gz
Wind_Speed
54 54 54 57 55 52 50 53 54 53 46 41 37 29 27 23 25 25 27 26 23 20 26 38 58 58 52 53 49 39 34 36
59 57 55 57 55 55 55 56 53 50 44 38 32 29 28 24 23 25 28 24 21 12 23 34 53 51 49 51 54 39 30 33
64 62 59 61 62 62 60 57 53 49 41 36 31 28 29 26 22 23 27 24 20 16 23 36 50 48 45 42 48 44 32 33
62 63 63 63 60 58 59 53 52 47 41 38 30 29 30 24 21 24 26 26 18 22 30 40 40 44 42 38 39 38 38 38
67 65 66 61 56 55 52 49 49 44 43 37 29 30 30 23 20 25 26 28 24 18 33 37 36 36 39 38 37 36 39 41
66 64 63 58 52 50 47 46 47 44 42 36 29 32 30 20 18 22 32 31 35 35 36 35 37 35 34 40 41 44 43 51
71 67 67 61 55 49 45 47 47 42 46 36 31 34 31 19 15 17 35 34 37 43 45 45 41 44 48 42 43 48 59 58
67 65 59 55 55 51 48 49 48 41 45 38 35 37 32 21 14 10 29 41 36 43 44 51 50 49 49 51 54 55 54 57
66 60 58 56 55 51 51 51 50 45 46 41 40 41 36 28 22 14 15 33 41 43 44 46 50 53 54 55 61 60 59 57
63 59 56 55 54 54 56 55 55 51 46 43 44 46 41 37 28 22 19 20 32 42 52 47 50 50 51 55 56 57 57 59
54 56 59 59 61 59 59 60 60 54 47 45 48 51 45 42 35 31 26 26 25 28 37 53 57 55 58 57 57 56 55 55
64 61 63 64 67 64 64 62 57 54 48 48 52 55 50 47 42 38 34 33 30 28 32 35 42 53 57 57 56 57 57 56
67 65 66 69 68 70 68 64 59 56 48 50 54 58 55 51 47 42 38 36 34 32 32 33 35 38 40 39 39 38 35 34
68 69 70 71 71 71 70 62 62 54 48 51 56 62 60 55 51 47 43 39 37 36 37 37 36 35 34 35 34 34 35 35
55 56 58 60 64 66 64 61 58 49 49 50 58 64 63 58 55 50 47 43 41 43 42 43 44 43 41 40 40 41 41 41
29 32 34 36 39 46 49 51 51 44 47 48 58 64 64 59 54 51 48 43 45 47 50 50 49 47 45 46 46 47 47 47
10 14 22 25 30 38 42 42 45 48 45 51 57 63 63 58 55 54 54 51 48 50 52 53 53 51 53 51 50 51 52 52
19 11 7 9 20 26 33 37 43 49 50 56 57 61 59 54 54 56 57 57 56 59 60 58 53 54 56 57 56 56 55 55
20 19 26 19 24 28 29 40 45 48 51 52 54 58 56 50 47 54 56 53 62 63 61 61 58 56 57 60 61 61 62 62

GFSFLT1_250_spd_099.txt.gz
Wind_Speed
60 60 61 62 59 55 55 54 53 53 53 48 47 50 46 36 33 28 31 32 32 32 28 27 26 34 36 53 58 51 47 48
62 64 63 59 58 58 55 51 50 51 51 54 53 51 48 37 33 28 31 32 31 31 28 25 23 28 34 53 56 50 48 48
62 62 60 60 59 61 60 56 54 55 56 60 58 54 46 37 33 30 31 31 31 30 26 22 33 37 36 58 49 45 49 45
69 69 67 62 60 64 61 57 53 57 55 57 54 49 43 39 35 31 29 31 30 26 24 18 28 32 41 62 47 42 44 46
72 71 71 67 65 63 62 62 58 60 56 55 47 41 42 38 34 31 29 29 29 23 19 23 22 26 46 56 46 50 45 43
70 69 69 67 66 65 65 63 59 59 54 58 49 40 41 37 34 30 28 25 30 23 15 18 22 21 38 37 40 48 47 49
72 73 70 68 66 64 67 66 60 59 61 57 48 39 41 36 35 28 30 25 31 27 20 21 27 30 34 35 38 40 40 40
82 81 80 77 74 71 71 68 60 58 58 53 48 41 41 38 37 29 30 23 35 31 31 29 29 30 31 33 36 41 43 46
85 84 84 84 81 77 69 64 61 58 57 50 48 44 42 37 40 31 29 23 41 33 41 41 40 42 40 43 44 47 47 48
88 85 81 79 78 77 73 64 62 57 55 51 49 45 45 39 44 36 33 29 34 43 47 51 51 50 51 51 51 55 59 58
88 86 82 80 75 75 70 65 61 57 53 49 49 49 49 42 48 43 38 34 32 36 49 50 55 57 58 61 60 61 62 64
85 83 79 76 75 71 60 62 57 56 55 57 51 52 53 46 52 50 46 39 34 32 33 49 54 54 57 63 62 64 67 65
73 71 71 69 68 65 64 62 57 61 58 59 56 52 54 50 55 56 50 46 42 37 33 33 35 53 62 59 58 60 60 63
67 66 66 63 63 67 68 67 64 67 64 63 59 54 54 50 56 61 55 51 47 42 39 35 32 35 40 45 47 49 52 55
58 57 59 62 64 68 68 68 69 69 68 66 60 54 55 50 55 64 60 55 51 46 44 41 38 39 42 45 46 46 47 47
56 56 54 58 63 68 70 70 69 66 65 59 55 49 49 49 53 66 64 59 54 50 45 44 42 43 46 47 48 48 48 49
51 49 51 51 47 52 55 57 58 57 57 54 51 49 49 51 54 63 66 61 57 54 50 46 45 47 48 51 53 52 52 53
36 34 27 18 18 29 37 42 48 52 53 51 50 48 48 51 52 59 65 64 62 58 55 51 51 54 53 55 54 54 55 56
36 35 26 15 10 12 15 30 34 42 49 50 52 50 49 47 49 53 61 64 63 62 56 55 57 61 61 62 62 60 59 61

GFSFLT1_250_spd_102.txt.gz
Wind_Speed
57 55 51 52 53 53 47 51 54 54 55 55 52 48 49 44 44 48 47 45 40 35 34 34 30 29 31 33 38 49 49 44
59 58 56 54 55 55 52 50 57 57 53 51 51 50 49 50 46 46 52 44 40 36 34 34 30 32 30 28 32 38 51 50
69 63 59 59 59 57 56 52 53 55 54 50 52 50 50 49 44 45 46 41 39 38 34 32 29 31 27 23 23 26 51 53
77 66 63 63 60 55 57 57 54 55 58 54 52 52 52 50 44 45 39 38 38 37 33 29 27 28 26 32 33 37 45 55
70 67 70 67 62 63 61 64 62 58 62 57 55 54 55 52 45 43 38 37 37 36 31 25 27 24 28 35 36 33 45 49
71 68 65 68 65 64 67 66 67 58 62 58 56 56 55 56 45 43 40 36 35 33 25 24 24 25 30 33 37 31 45 45
63 62 63 64 63 67 66 64 67 62 63 60 57 60 59 55 46 44 41 35 35 31 24 25 21 21 19 22 27 38 44 42
74 63 64 66 71 72 70 64 67 64 66 62 62 64 56 54 47 43 41 36 35 30 26 26 19 22 20 17 23 35 35 40
70 71 69 68 69 70 66 68 70 71 75 71 67 64 57 53 48 43 44 38 36 30 29 28 25 27 26 23 25 29 36 43
77 71 72 69 66 70 71 73 75 77 77 70 66 65 58 52 48 45 43 38 39 35 31 35 33 32 32 32 31 32 36 40
80 76 78 75 75 76 77 75 76 79 76 68 67 63 58 52 50 48 46 39 42 41 29 44 44 39 38 38 38 42 44 46
84 82 83 79 77 79 81 79 82 82 80 74 66 63 56 52 48 47 46 43 44 44 36 45 52 48 44 45 48 53 53 54
88 85 85 83 82 80 83 84 85 80 77 72 66 61 56 51 53 50 48 49 44 50 43 35 48 55 55 49 52 58 58 60
84 84 81 79 80 83 86 86 87 79 74 69 62 53 52 49 54 58 55 52 46 54 49 42 38 50 58 60 56 55 62 65
82 82 81 80 76 73 76 78 75 69 68 63 61 57 54 51 55 58 57 54 49 56 56 49 43 40 44 56 64 67 67 66
49 53 55 58 65 68 70 69 69 66 65 65 64 64 62 57 55 61 61 55 51 54 61 55 51 48 48 47 46 47 53 59
49 53 57 58 60 63 62 63 62 65 69 71 70 68 67 63 61 62 62 56 54 52 63 61 58 54 50 51 50 48 48 49
49 50 51 52 52 52 55 58 60 65 69 71 73 73 72 67 57 62 56 52 49 53 62 66 63 60 56 52 51 51 49 49
50 52 48 48 47 46 36 25 30 38 54 60 61 66 64 62 58 59 55 51 51 51 58 68 67 65 61 58 58 56 56 54

GFSFLT1_250_spd_105.txt.gz
Wind_Speed
59 61 59 56 50 43 41 43 42 42 37 40 42 41 42 41 43 44 39 40 41 44 40 36 36 35 33 34 35 34 37 39
60 64 63 64 57 48 44 44 42 46 37 40 41 42 41 43 43 43 41 43 39 43 40 36 37 35 34 32 33 30 35 39
63 64 67 68 66 53 49 45 45 51 47 41 41 43 44 46 43 44 44 45 43 42 39 35 37 36 34 30 30 29 26 37
69 63 65 66 61 58 50 49 52 53 54 48 47 48 49 50 48 48 46 45 47 40 38 35 37 35 35 29 31 30 26 26
66 57 59 59 60 61 59 55 56 57 57 53 49 51 52 53 51 51 49 48 50 39 35 36 34 31 31 28 29 30 25 26
60 53 49 50 58 64 64 61 61 58 55 59 55 52 55 55 53 53 52 53 49 40 34 36 33 29 27 27 29 26 38 33
60 60 58 59 60 63 66 66 63 58 54 65 61 52 56 57 52 57 59 56 49 41 33 34 32 29 27 25 28 33 37 38
64 66 69 66 59 56 59 62 62 55 57 65 66 59 56 58 54 59 59 55 48 40 33 33 31 29 26 23 26 26 31 29
74 73 73 69 66 61 59 56 57 54 59 69 70 61 55 57 60 63 61 58 49 40 34 32 31 29 29 25 26 20 26 30
74 73 71 70 68 63 65 61 60 56 60 69 67 61 55 60 62 63 61 59 49 39 35 33 32 31 33 26 27 20 18 31
78 74 72 71 70 69 68 66 67 61 61 64 61 57 61 63 61 62 63 59 49 43 37 35 35 30 37 30 30 28 26 32
79 80 73 74 72 73 71 67 67 66 70 68 65 64 65 66 64 65 64 59 49 45 40 38 40 37 39 39 35 37 36 37
74 78 79 75 75 73 74 71 70 71 71 71 69 67 67 67 69 67 65 60 52 45 44 37 41 42 39 44 44 44 44 45
63 66 68 72 74 74 79 80 76 75 75 73 72 72 71 71 72 63 68 57 51 47 49 46 42 49 46 43 52 52 49 50
53 57 63 71 76 76 77 79 80 81 78 78 78 77 75 74 73 68 62 53 53 48 50 51 45 48 53 47 48 59 57 56
56 60 61 64 67 69 73 80 82 84 85 81 77 76 73 64 63 57 54 51 53 51 50 49 48 50 57 54 49 52 62 66
47 48 57 66 70 73 75 77 80 81 84 84 77 70 63 57 56 58 57 58 58 59 54 54 50 49 57 61 56 52 50 52
30 40 41 44 47 49 51 52 54 57 59 61 62 62 61 61 63 61 63 65 63 65 60 58 56 53 56 63 64 59 56 54
44 46 46 47 48 53 55 56 57 58 60 61 61 62 63 61 63 64 65 67 67 67 65 58 60 58 57 64 70 67 63 60

GFSFLT1_250_spd_108.txt.gz
Wind_Speed
74 69 63 64 62 54 53 48 44 36 35 34 34 32 31 30 30 30 28 27 32 34 36 39 39 40 36 32 33 32 32 36
79 74 68 68 64 54 54 51 46 42 40 37 31 32 30 32 34 33 29 30 35 37 41 38 43 39 36 33 33 31 33 35
81 78 74 69 61 54 55 55 50 45 42 42 37 35 35 37 41 39 38 36 37 36 39 40 43 39 34 33 34 31 33 32
87 83 73 66 59 57 52 55 54 52 51 47 42 40 40 42 44 41 41 41 41 40 42 44 46 40 33 33 33 30 29 28
81 77 72 66 61 55 54 58 60 58 54 51 49 46 46 47 44 43 44 45 45 43 44 46 48 41 33 32 29 28 28 31
70 74 71 67 60 56 53 56 60 61 58 53 52 54 53 47 48 47 47 48 47 46 45 47 49 43 33 31 27 25 29 26
66 73 68 67 60 57 54 56 61 62 61 60 57 53 51 47 50 52 48 50 50 48 47 49 48 43 33 30 28 27 29 35
74 71 69 66 62 60 55 56 57 55 59 60 61 59 59 54 53 53 51 55 51 48 48 50 49 43 33 31 27 27 31 32
73 67 68 66 64 62 61 57 53 55 55 58 63 63 60 54 51 54 57 59 54 48 49 50 46 41 34 32 29 28 33 34
74 69 71 70 70 70 66 58 59 57 55 53 55 63 58 55 50 52 57 55 52 51 49 48 49 43 36 33 33 29 32 30
68 67 75 74 69 65 63 58 58 62 57 53 55 59 54 50 53 52 58 54 52 50 49 50 51 44 39 33 35 31 30 30
67 74 79 75 70 68 68 64 65 64 62 59 60 58 53 49 52 54 56 56 53 53 56 55 54 48 41 36 35 35 35 32
61 69 68 73 77 73 68 69 69 67 68 65 61 58 56 56 54 57 59 58 55 57 57 60 59 53 45 38 36 38 39 37
58 63 65 69 71 71 72 71 71 71 67 66 67 66 62 61 61 62 62 62 59 62 65 64 63 61 47 41 39 43 40 44
42 52 63 66 67 71 75 76 74 71 69 68 70 67 65 66 65 67 67 66 70 68 68 70 65 52 47 46 41 40 45 46
48 45 47 55 64 68 71 74 76 73 75 75 70 66 63 67 72 71 72 72 70 73 70 62 59 52 49 48 46 45 44 50
38 44 50 52 57 59 61 69 74 76 74 70 71 72 72 74 75 77 76 74 75 73 69 64 64 57 52 52 49 44 46 52
36 36 39 44 52 54 55 56 58 62 67 70 74 79 79 79 77 76 78 57 56 76 71 65 63 62 54 56 52 47 48 51
33 34 37 39 41 46 54 60 65 69 70 71 72 72 73 74 74 74 72 72 73 62 63 63 65 65 62 61 60 57 53 53

GFSFLT1_250_spd_111.txt.gz
Wind_Speed
81 73 73 72 79 75 74 60 59 57 50 48 45 40 40 38 34 31 28 23 18 18 22 26 27 29 34 37 35 34 33 29
87 83 79 73 78 75 74 61 58 57 53 50 48 45 36 34 33 32 30 29 25 24 25 27 29 32 35 38 38 35 31 29
93 84 78 76 71 70 73 68 59 56 55 52 46 46 42 35 35 34 31 30 31 30 28 29 31 33 34 37 39 34 32 30
97 87 80 71 66 69 71 70 61 56 56 53 51 47 44 40 40 37 36 34 34 35 32 32 34 36 35 37 41 35 32 31
97 91 74 66 69 71 69 73 65 59 56 57 57 56 49 48 43 42 39 40 40 39 35 35 36 36 36 38 43 37 32 29
91 84 72 66 67 68 72 76 68 60 59 60 62 60 54 52 46 45 46 46 43 42 40 38 39 40 39 40 42 37 32 27
79 78 72 66 65 69 73 76 69 64 59 58 62 64 60 57 52 43 47 47 47 43 42 40 44 42 40 41 41 37 33 29
78 78 73 67 64 68 70 74 70 67 63 61 62 63 62 62 59 53 44 44 45 45 44 42 44 45 40 42 40 38 34 30
72 76 74 67 63 68 70 76 75 70 67 63 62 61 63 63 63 61 57 54 52 52 48 45 43 43 41 42 40 38 34 33
63 70 71 67 64 68 73 75 73 73 69 64 62 62 63 63 62 59 58 56 54 52 48 47 42 41 42 44 43 41 34 34
54 61 68 63 60 66 72 73 73 75 74 66 61 62 61 65 62 60 62 57 53 51 50 47 46 45 44 44 46 43 38 36
48 53 59 59 60 63 69 71 74 73 70 64 60 56 56 60 65 64 60 54 50 53 54 51 53 49 45 47 47 48 41 38
41 42 58 60 61 61 67 73 72 72 69 67 64 60 61 61 56 52 48 48 49 53 52 51 55 52 48 45 49 52 49 43
37 49 56 57 58 67 70 73 73 72 72 68 65 64 61 63 63 58 54 52 50 52 55 52 53 51 48 49 52 54 53 46
31 35 46 50 54 56 61 68 72 72 74 72 69 68 65 63 64 62 59 56 57 59 60 58 59 59 57 60 60 58 58 48
33 44 46 49 50 54 61 67 73 75 75 75 72 69 67 69 67 66 66 67 69 65 65 65 68 67 66 65 60 61 55 48
35 36 35 37 41 47 58 61 70 75 80 81 81 76 71 69 70 70 71 70 71 70 69 68 68 68 71 70 69 65 60 53
44 43 41 42 41 41 45 51 61 66 69 73 75 76 75 73 72 71 73 71 66 49 58 72 72 76 81 76 71 69 63 60
46 42 40 43 43 49 50 52 57 62 67 70 71 72 72 73 74 75 74 72 68 69 75 80 79 76 72 75 68 63 64 64

GFSFLT1_250_spd_114.txt.gz
Wind_Speed
86 92 90 86 82 72 69 67 73 68 65 60 58 53 50 46 40 40 43 42 38 33 29 23 21 21 20 21 23 25 28 30
99 99 95 90 82 72 66 65 67 70 69 64 61 56 52 48 44 37 41 40 41 38 28 25 24 23 23 24 26 27 28 31
106 108 102 92 83 76 69 64 70 67 72 66 62 59 52 51 48 42 40 41 40 35 34 30 25 25 27 28 28 29 30 33
107 108 103 97 88 81 71 65 72 67 71 68 63 60 53 51 51 48 41 38 38 38 37 33 30 30 29 30 30 33 33 35
110 106 100 95 91 82 75 67 73 68 67 70 68 64 58 55 53 48 43 40 39 37 38 34 31 31 34 33 33 34 35 36
102 101 100 94 92 85 77 73 73 74 71 69 70 68 65 60 57 52 47 44 43 37 39 38 36 34 36 37 38 36 37 36
83 92 94 92 90 86 77 76 74 78 73 73 71 72 68 65 61 57 54 52 48 43 42 41 40 39 38 38 38 38 35 35
72 80 82 82 84 80 75 78 77 77 76 75 72 72 70 67 63 60 58 56 51 52 46 43 42 41 38 38 41 36 34 35
62 66 69 68 80 78 76 78 76 78 77 77 74 73 72 68 64 64 61 61 54 50 51 49 41 45 44 44 41 35 34 38
51 55 59 62 69 71 76 77 75 74 73 75 76 77 75 69 67 64 64 63 60 57 53 54 54 50 49 44 38 37 36 39
45 46 48 52 56 60 66 72 71 72 75 76 77 73 74 70 69 65 64 63 58 54 51 54 54 50 49 45 41 40 41 43
39 42 46 50 54 58 62 66 70 71 74 78 77 74 76 75 69 65 64 62 61 59 58 56 56 52 48 50 46 43 47 46
34 36 40 44 47 51 58 63 67 69 70 75 80 77 74 74 70 65 63 63 66 65 61 57 59 55 53 52 48 45 49 49
25 26 31 38 43 47 53 60 62 66 67 72 76 76 74 72 70 67 66 66 66 66 65 60 54 51 52 53 54 50 50 49
28 23 29 39 40 46 51 55 60 64 66 69 74 74 73 71 70 69 66 62 57 56 54 56 54 51 56 57 54 54 54 52
22 29 30 33 33 40 51 54 55 59 65 70 71 74 73 72 71 70 69 66 64 60 56 55 56 55 56 56 64 62 60 60
30 23 25 31 36 41 42 47 55 59 64 68 73 72 74 73 72 73 71 70 67 62 59 60 60 60 59 53 64 69 69 67
25 27 30 32 35 37 39 42 46 50 57 64 69 73 78 78 76 76 75 73 72 70 69 68 66 65 66 69 60 75 74 75
31 31 35 37 41 45 50 51 52 51 56 63 69 73 78 80 79 79 80 78 77 75 73 70 70 67 68 66 69 77 76 68

GFSFLT1_250_spd_120.txt.gz
Wind_Speed
107 109 109 107 105 97 94 93 88 79 75 71 63 65 66 58 53 51 51 54 55 49 45 40 40 42 37 37 39 41 34 31
118 115 115 111 113 104 99 96 93 86 79 71 65 65 66 64 54 49 52 53 56 54 50 43 41 40 40 40 41 40 34 31
116 120 127 119 115 110 106 98 94 91 80 76 70 67 67 62 53 51 53 53 53 56 53 47 43 41 43 40 38 38 36 33
102 100 110 122 123 118 111 108 102 96 88 80 71 67 71 64 59 62 57 55 52 53 54 50 45 44 40 44 45 40 37 35
82 89 96 108 125 126 117 111 104 101 94 84 72 71 67 69 65 56 54 56 54 53 53 51 48 46 42 42 45 43 40 37
65 73 80 95 105 121 120 117 109 102 97 84 75 76 73 73 70 55 56 56 54 53 53 53 52 49 43 43 43 44 44 40
55 57 66 77 91 108 112 114 113 103 93 83 81 57 80 73 66 51 59 55 54 53 53 55 56 53 44 43 43 46 46 41
44 47 53 64 77 93 101 111 112 103 92 77 75 83 61 63 64 54 63 58 52 55 54 54 55 54 46 45 44 46 45 44
36 39 44 54 64 75 92 104 108 103 92 76 71 77 84 85 69 69 67 62 56 57 52 54 55 54 50 49 47 49 47 48
30 31 36 46 56 70 91 99 103 103 94 87 87 82 82 78 78 76 74 64 64 56 53 56 56 56 57 53 52 53 52 51
20 26 31 39 51 64 79 101 105 99 92 87 87 89 87 86 85 79 75 71 64 59 55 59 61 61 59 54 56 54 52 54
16 20 27 34 45 60 75 80 98 101 94 87 83 84 84 84 81 80 76 71 67 63 54 54 63 63 59 58 59 56 56 56
13 18 21 28 36 47 61 62 80 93 98 91 90 85 83 87 83 83 78 75 68 63 55 55 64 68 67 69 62 58 58 57
11 11 17 21 28 35 45 55 66 80 93 95 94 90 89 91 89 87 83 77 70 72 64 66 67 69 67 66 65 65 66 63
18 17 16 17 25 32 38 45 59 71 81 91 93 91 92 94 94 92 89 85 79 79 78 69 67 71 72 70 70 67 68 64
24 24 16 10 19 27 32 37 42 54 65 75 83 91 92 91 90 90 89 85 84 82 79 77 74 70 70 76 74 72 68 67
24 14 19 21 17 19 19 21 27 31 36 44 53 63 69 81 86 88 88 87 84 81 81 82 78 81 78 78 77 74 72 71
19 12 15 20 15 17 22 16 22 25 29 34 40 50 56 61 67 71 75 78 79 81 77 75 80 80 81 84 84 84 81 79
18 17 22 24 24 23 27 21 23 24 33 34 34 38 45 53 58 62 65 69 72 76 76 76 78 81 82 84 84 81 78 78

GFSFLT1_250_spd_123.txt.gz
Wind_Speed
115 112 110 111 109 106 102 96 93 89 87 84 79 73 71 71 65 63 64 66 55 48 49 47 47 49 45 43 42 41 36 38
107 108 113 117 118 113 113 106 103 95 92 90 85 74 74 71 70 69 69 65 56 49 48 48 45 51 48 45 45 44 36 39
97 99 104 109 121 117 116 114 106 103 98 95 87 80 78 78 75 75 69 63 56 50 46 47 46 48 51 47 47 44 42 40
92 92 93 96 100 110 114 119 113 112 104 102 95 90 84 77 75 73 67 66 67 55 47 43 50 47 50 51 49 45 42 42
79 81 81 86 90 95 102 118 113 116 110 105 99 91 82 74 74 78 76 69 71 57 42 45 49 50 49 55 48 47 42 45
63 61 64 70 77 83 88 106 115 109 110 105 99 92 84 81 86 84 77 73 69 64 45 44 50 48 48 53 50 46 43 44
53 51 54 59 63 67 72 88 109 100 102 100 99 93 83 86 86 84 77 72 66 68 50 47 47 53 49 52 50 46 45 44
36 35 36 41 46 53 58 69 87 92 92 97 87 86 79 82 77 75 82 62 65 60 53 52 49 51 53 51 50 50 48 46
26 24 25 26 33 41 49 59 66 78 87 90 83 85 77 66 47 35 90 86 75 66 56 60 54 49 54 52 50 52 52 48
24 19 19 18 27 37 44 51 53 73 91 86 77 84 79 54 68 61 45 50 62 65 63 66 60 48 49 52 51 50 49 49
19 15 17 19 29 33 38 43 53 72 90 80 67 81 77 64 56 84 62 79 85 73 68 66 69 59 60 51 53 50 36 59
23 12 13 18 24 29 33 37 51 71 88 71 66 70 71 65 73 87 85 86 83 81 76 74 76 77 64 55 55 53 55 52
13 10 10 17 22 25 32 38 47 68 81 69 68 81 72 76 77 81 85 92 84 74 77 80 83 76 62 56 57 64 57 53
12 5 6 12 23 30 35 39 48 59 74 86 82 87 81 78 94 87 90 92 91 91 90 86 92 72 70 67 63 64 63 60
3 6 9 11 17 26 36 53 53 61 56 82 94 97 97 89 90 107 102 97 97 100 100 99 96 77 71 73 69 66 68 70
8 9 13 12 17 26 32 51 65 71 70 69 87 104 102 106 110 118 113 108 110 106 104 102 98 92 84 82 74 74 71 75
16 14 17 16 12 19 35 42 52 67 75 78 77 92 105 107 109 113 116 117 114 112 109 103 96 93 91 86 81 79 74 74
15 15 13 13 13 18 25 37 49 57 67 66 66 63 78 102 107 105 105 106 105 101 99 100 98 97 97 91 86 87 85 81
15 18 16 12 9 16 22 27 24 34 49 50 53 56 61 69 82 102 111 110 106 106 103 103 104 104 100 96 92 89 90 89

GFSFLT1_250_spd_126.txt.gz
Wind_Speed
107 109 111 113 118 116 110 107 105 100 95 90 89 82 74 73 69 71 64 62 62 57 54 54 54 50 46 49 50 47 43 40
105 108 105 107 111 115 117 114 113 109 105 96 91 85 75 74 73 72 69 66 65 60 57 58 56 52 50 51 49 49 45 42
90 93 93 95 97 104 110 114 117 116 110 106 98 92 82 75 77 77 72 69 65 61 60 61 54 55 47 48 50 48 48 44
80 81 83 84 86 87 97 103 110 115 116 111 104 98 89 76 77 77 74 73 68 64 62 62 60 57 49 46 51 46 47 47
63 65 69 72 72 75 82 89 95 106 107 109 107 101 92 77 80 75 72 75 73 69 66 65 66 62 53 43 51 53 47 48
52 55 55 60 63 65 68 74 81 90 101 102 101 104 94 84 83 81 78 79 81 76 73 71 67 62 54 40 50 53 55 49
50 49 48 51 54 58 56 61 70 74 89 94 96 97 90 76 70 77 78 80 82 80 77 74 68 59 50 45 45 50 51 52
39 38 35 40 44 51 54 51 56 62 76 81 76 85 75 47 35 58 72 68 80 74 71 74 70 62 56 41 41 44 47 51
26 27 25 28 37 41 46 47 45 49 56 62 71 69 53 51 39 42 43 67 66 61 65 71 67 65 55 54 53 44 42 46
21 22 23 27 25 29 33 36 40 41 43 52 65 59 52 71 76 71 86 56 59 59 65 72 70 63 59 48 53 46 38 39
29 23 24 24 24 22 22 25 29 32 40 51 63 66 65 55 70 66 67 79 59 45 36 41 55 62 63 51 55 53 46 40
33 25 23 21 19 14 13 19 24 32 45 53 62 62 72 81 70 64 60 71 79 73 61 53 48 58 66 60 56 60 60 46
32 26 21 12 5 4 9 16 24 37 48 61 68 71 67 71 79 74 68 67 57 66 78 77 71 68 70 68 74 65 64 60
31 21 13 6 6 11 17 23 24 41 55 62 66 68 67 83 76 68 85 76 63 71 72 83 80 82 75 67 70 77 66 63
32 25 14 5 12 17 21 30 31 42 55 66 62 62 64 71 65 68 72 77 79 76 77 89 86 88 85 80 77 74 74 66
23 21 10 5 9 12 21 32 37 47 59 69 63 71 70 68 69 72 72 76 89 80 81 88 81 82 81 78 79 75 73 68
17 14 3 4 9 14 14 31 38 51 63 75 84 84 79 85 88 87 82 87 89 86 87 91 86 87 87 88 83 80 79 83
12 7 11 15 18 19 19 30 43 56 68 72 77 79 75 75 84 89 97 105 94 98 96 99 99 96 96 95 95 93 90 90
14 13 10 15 21 30 34 39 44 57 67 73 76 83 85 86 91 94 93 101 102 102 98 99 99 109 108 106 100 98 98 101